Location: Newark
(41.6500°N, 71.4833°W)
Time: 01:38:29
(UTC+00:00)

deb Explorer IX - Pass Details

Date: 30 January 2020
Orbit: 549 x 1099 km, 38.8° (Epoch: 20 February)

Event Time Altitude Azimuth Distance (km) Brightness Sun altitude
Rises 06:03:07 0° 279° (W) 3,881 - -62.5°
Reaches altitude 10° 06:06:12 10° 269° (W) 2,944 - -62.2°
Maximum altitude 06:12:20 30° 212° (SSW) 1,841 - -61.5°
Drops below altitude 10° 06:18:18 10° 154° (SSE) 2,856 - -60.7°
Sets 06:21:16 0° 144° (SE) 3,748 - -60.4°
